Torna al catalogo

KUIPER-00416

AttivoComunicazioniLEO
NORAD 68931·PAYLOAD·🇺🇸 United States

Lanciato Apr 30, 2026 da Guiana Space Centre

Loading…

Prossimi Passaggi (prossime 24 ore)

TLE

AggiornatoSource: CelesTrak SupGP

Epoca: Sep 14, 2026, 22:55 UTC

1 68931C 26098N   26257.95496528  .00004475  00000+0  58592-3 0  2570
2 68931  51.9032   7.5689 0000550 112.3475 142.8502 14.79917197    15

Traccia KUIPER-00416 in tempo reale con AllMySat

Download on the App Store